Regional Weather Roundup
Issued by NWS

Home | Current Version | Previous Version | Graphics & Text | Print | Product List | Glossary On
Versions: 1 2 3 4 5 6 7 8 9 10 11 12 13 14 15 16 17 18 19 20 21 22 23 24 25 26 27 28 29 30 31 32 33 34 35 36 37 38 39 40 41 42 43 44 45 46 47 48 49 50
000
ASUS45 KBOI 270010
RWRID
WEATHER ROUNDUP FOR IDAHO
NATIONAL WEATHER SERVICE BOISE ID
500 PM MST WED NOV 26 2014

NOTE: "FAIR" INDICATES FEW OR NO CLOUDS BELOW 12000 FEET
WITH NO SIGNIFICANT WEATHER AND/OR OBSTRUCTIONS TO VISIBILITY

IDZ012-014-270100-
SOUTHWEST IDAHO


CITY           SKY/WX    TMP DP  RH WIND       PRES   REMARKS
BOISE          PTCLDY    54  40  59 SE6       30.23S
CALDWELL       NOT AVBL
MOUNTAIN HOME  MOCLDY    53  44  70 E5        30.23S
$$

IDZ016-017-270100-
SOUTHCENTRAL IDAHO


CITY           SKY/WX    TMP DP  RH WIND       PRES   REMARKS
BURLEY         CLEAR     48  35  60 SW3       30.28S
JEROME         CLEAR     51  36  56 CALM      30.28F
TWIN FALLS     CLEAR     52  40  63 E6        30.29R
$$

IDZ019>023-270100-
SOUTHEAST IDAHO


CITY           SKY/WX    TMP DP  RH WIND       PRES   REMARKS
IDAHO FALLS    MOCLDY    48  36  63 S13       30.27S
POCATELLO      CLEAR     49  35  58 S10       30.29S
REXBURG        CLOUDY    46  36  68 S12       30.26S
$$

IDZ006-010-011-018-031-032-270100-
CENTRAL IDAHO MOUNTAINS


CITY           SKY/WX    TMP DP  RH WIND       PRES   REMARKS
MCCALL         CLOUDY    38  37  97 CALM      30.23F FOG
HAILEY         MOCLDY    45  36  70 SE8       30.28R
STANLEY          N/A     37  28  70 S6        30.29R WCI  32
SALMON         MOCLDY    36  32  87 CALM      30.20S
CHALLIS        CLOUDY    46  30  53 CALM      30.21R
$$

IDZ002-004-006-007-026-270100-
NORTHERN IDAHO


CITY           SKY/WX    TMP DP  RH WIND       PRES   REMARKS
LEWISTON       CLOUDY    44  43  96 CALM      30.12F
LOWELL           N/A     41  40  96 CALM      30.20F
COEUR D`ALENE  CLOUDY    39  37  93 CALM      30.09F
MULLAN PASS    FOG       34  34 100 VRB7      30.10F VSB 1/4 WCI  28
$$



USA.gov is the U.S. government's official web portal to all federal, state and local government web resources and services.